#timestamp,LO_Frequency,Hit,StdDev 
1510880415.3,286046999.6,N
1510880435.1,286047001.1,N
1510880455.9,286047002.7,N
1510880475.7,286047000.3,N
1510880495.6,286047002.0,N
1510880515.4,286046999.7,N
1510880535.2,286047002.3,N
1510880555.1,286047002.2,N
1510880556.0,286047002.2,N
1510880575.8,286047001.9,N
1510880595.6,286047001.9,N
1510880615.5,286047001.5,N
1510880635.3,286047002.6,N
1510880655.2,286047002.3,N
1510880675.9,286047002.7,N
1510880695.7,286046999.9,N
1510880715.6,286047002.2,N
1510880735.4,286047002.2,N
1510880755.2,286047002.4,N
1510880775.1,286047002.5,N
1510880776.0,286047002.5,N
1510880795.8,286047001.6,N
1510880815.7,286047002.3,N
1510880835.5,286047001.2,N
1510880855.3,286046998.8,N
1510880875.2,286047000.5,N
1510880895.0,286047000.2,N
1510880895.9,286047000.2,N
1510880915.7,286047000.0,N
1510880935.6,286047000.0,N
1510880955.4,286047000.4,N
1510880975.3,286047002.4,N
1510880995.1,286047000.4,N
1510880996.0,286047000.4,N
1510881015.8,286047000.1,N
1510881035.7,286047001.1,N
1510881055.5,286047000.4,N
1510881075.3,286047002.6,N
1510881095.2,286047002.4,N
1510881115.0,286047003.6,Y
1510881115.9,286047003.6,P
1510881135.8,286047002.2,N
1510881155.6,286046999.7,N
1510881175.4,286047002.4,N
1510881195.3,286047002.3,N
1510881215.1,286047002.3,N
1510881235.9,286047002.5,N
1510881255.7,286047002.5,N
1510881275.5,286047002.0,N
1510881295.4,286047000.4,N
1510881315.2,286047002.4,N
1510881335.0,286047002.5,N
1510881335.9,286047002.5,N
1510881355.8,286047002.3,N
1510881375.6,286046999.9,N
1510881395.5,286046999.9,N
1510881415.3,286047000.9,N
1510881435.1,286046998.9,N
1510881455.9,286046999.1,N
1510881475.7,286046998.3,N
1510881495.5,286046998.3,N
1510881515.4,286046999.5,N
1510881535.2,286047000.5,N
1510881555.1,286046998.8,N
1510881556.0,286046998.8,N
1510881575.8,286046996.7,N
1510881595.6,286046999.6,N
1510881615.5,286046998.4,N
1510881635.3,286046996.6,N
1510881655.1,286046996.9,N
1510881675.9,286046995.5,N
1510881695.7,286046997.5,N
1510881715.6,286046999.5,N
1510881735.4,286046996.8,N
1510881755.2,286046998.7,N
1510881775.1,286047000.6,N
1510881776.0,286047000.6,N
1510881795.8,286047000.4,N
1510881815.7,286047001.0,N
1510881835.5,286046998.8,N
1510881855.3,286046997.7,N
1510881875.2,286046997.4,N
1510881895.9,286046995.8,N
1510881915.7,286046995.2,N
1510881935.6,286046997.5,N
1510881955.4,286046997.2,N
1510881975.2,286046997.1,N
1510881995.1,286046996.5,N
1510881996.0,286046996.5,N
1510882015.8,286046996.9,N
1510882035.7,286046998.8,N
1510882055.5,286046996.7,N
1510882075.3,286046997.4,N
1510882095.2,286046997.0,N
1510882115.0,286046996.0,N
1510882115.9,286046996.0,N
1510882135.8,286046993.4,Y
1510882155.6,286046996.7,P
1510882175.4,286046998.3,P
1510882195.3,286046998.6,N
1510882215.1,286047000.4,N
1510882235.8,286046998.2,N
1510882255.7,286047000.3,N
1510882275.5,286047001.2,N
1510882295.4,286046998.9,N
1510882315.2,286046996.7,N
1510882335.0,286046996.6,N
1510882335.9,286046996.6,N
1510882355.8,286046999.2,N
1510882375.6,286046997.4,N
1510882395.4,286046997.1,N
1510882415.3,286046996.9,N
1510882435.1,286046999.0,N
1510882455.9,286046998.3,N
1510882475.7,286046998.7,N
1510882495.5,286046996.5,N
1510882515.4,286046997.0,N
1510882535.2,286046995.0,Y
1510882555.1,286046999.0,P
1510882556.0,286046999.0,N
1510882575.8,286046999.6,N
1510882595.6,286046998.9,N
1510882615.5,286046998.6,Y
1510882635.3,286047001.2,P
1510882655.2,286046999.4,N
1510882675.0,286046997.8,N
1510882675.9,286046997.8,N
1510882695.8,286046999.4,N
1510882715.6,286046996.7,N
1510882735.4,286046995.4,Y
1510882755.3,286046999.5,P
1510882775.1,286046998.4,P
1510882795.8,286047001.2,N
1510882815.7,286046998.4,N
1510882835.5,286046998.7,N
1510882855.4,286047000.7,N
1510882875.2,286046999.6,N
1510882895.0,286046998.7,N
1510882895.9,286046998.7,N
1510882915.8,286046998.3,N
1510882935.6,286047000.8,N
1510882955.5,286047001.0,N
1510882975.3,286046999.2,N
1510882995.1,286046999.5,N
1510883015.9,286046997.5,N
1510883035.7,286046999.2,N
1510883055.6,286046998.1,N
1510883075.4,286046998.8,N
1510883095.2,286046998.3,N
1510883115.1,286046996.6,Y
1510883116.0,286046996.6,P
1510883135.8,286046998.8,N
1510883155.7,286047000.4,N
1510883175.5,286047000.0,N
1510883195.3,286047001.6,N
1510883215.2,286047001.9,N
1510883235.0,286047002.8,N
1510883235.9,286047002.8,N
1510883255.8,286047000.4,N
1510883275.6,286047002.2,N
1510883295.4,286047002.3,N
1510883315.3,286047001.7,N
1510883335.1,286046999.7,N
1510883355.8,286047002.1,N
1510883375.7,286047002.0,N
1510883395.5,286047002.2,N
1510883415.4,286047000.9,N
1510883435.2,286047002.4,N
1510883455.0,286047002.7,N
1510883455.9,286047002.7,N
1510883475.8,286047001.0,N
1510883495.6,286046998.5,N
1510883515.4,286046998.9,N
1510883535.3,286046999.5,N
1510883555.1,286046997.7,N
1510883575.9,286046998.8,N
1510883595.7,286047000.3,N
1510883615.5,286047000.1,N
1510883635.4,286047002.8,N
1510883655.2,286046999.9,N
1510883675.0,286047000.0,N
1510883676.0,286047000.0,N
1510883695.8,286046998.5,N
1510883715.6,286046999.0,N
1510883735.5,286046998.3,N
1510883755.3,286046998.6,N
1510883775.1,286046998.9,N
1510883795.9,286046999.4,N
1510883815.7,286046997.0,N
1510883835.6,286046999.1,N
1510883855.4,286046996.9,N
1510883875.2,286046999.4,N
1510883895.1,286046997.4,N
1510883896.0,286046997.4,N
1510883915.8,286046997.4,N
1510883935.7,286046996.7,N
1510883955.5,286046995.0,N
1510883975.3,286046996.6,N
1510883995.2,286046997.0,N
